This is the latest recevied weather packets stored in our database for station/object KA3ZXO. If no packets are shown the sender has not sent any weather packets the latest 10 day(s).
| Time | Temp. | Humidity | Pressure | Rain* | Wind** | Luminosity | Snow |
|---|---|---|---|---|---|---|---|
| 1777446677 | 10° C | 86% | 1015.4 hPa | 0 mm | - | 0 W/m² | - |
| 1777446075 | 10° C | 84% | 1015.6 hPa | 0 mm | - | 0 W/m² | - |
| 1777445473 | 10.56° C | 82% | 1015.9 hPa | 0 mm | - | 0 W/m² | - |
| 1777444872 | 11.11° C | 81% | 1015.7 hPa | 0 mm | - | 0 W/m² | - |
| 1777444270 | 11.11° C | 80% | 1015.8 hPa | 0 mm | - | 0 W/m² | - |
| 1777443669 | 11.11° C | 79% | 1016 hPa | 0 mm | - | 0 W/m² | - |
| 1777443066 | 11.67° C | 77% | 1016.2 hPa | 0 mm | - | 0 W/m² | - |
| 1777442464 | 11.67° C | 77% | 1016.5 hPa | 0 mm | - | 0 W/m² | - |
| 1777441862 | 11.67° C | 76% | 1016.4 hPa | 0 mm | - | 0 W/m² | - |
| 1777441260 | 11.67° C | 77% | 1016.8 hPa | 0 mm | - | 0 W/m² | - |
| 1777440657 | 11.67° C | 77% | 1017.3 hPa | 0 mm | - | 0 W/m² | - |
| 1777440056 | 11.67° C | 78% | 1017.3 hPa | 0 mm | - | 0 W/m² | - |
| 1777439453 | 11.67° C | 79% | 1017.5 hPa | 0 mm | - | 0 W/m² | - |
| 1777438851 | 11.11° C | 80% | 1017.9 hPa | 0 mm | - | 0 W/m² | - |
| 1777438250 | 10.56° C | 84% | 1018 hPa | 0 mm | - | 0 W/m² | - |
| 1777437648 | 10.56° C | 85% | 1018.3 hPa | 0 mm | - | 0 W/m² | - |
| 1777437046 | 10° C | 86% | 1018.2 hPa | 0 mm | - | 0 W/m² | - |
| 1777436445 | 10° C | 85% | 1017.9 hPa | 0 mm | - | 0 W/m² | - |
| 1777435844 | 10° C | 84% | 1017.6 hPa | 0 mm | - | 0 W/m² | - |
| 1777435242 | 10° C | 83% | 1017.8 hPa | 0 mm | - | 0 W/m² | - |
| 1777434637 | 10.56° C | 83% | 1017.6 hPa | 0 mm | - | 0 W/m² | - |
| 1777434036 | 10.56° C | 80% | 1017.7 hPa | 0 mm | - | 0 W/m² | - |
| 1777433434 | 11.11° C | 78% | 1017.8 hPa | 0 mm | - | 0 W/m² | - |
| 1777432832 | 11.67° C | 77% | 1017.6 hPa | 0 mm | - | 0 W/m² | - |
| 1777432229 | 11.67° C | 76% | 1017.7 hPa | 0 mm | - | 0 W/m² | - |
* Rain latest hour (hover to see other rain measurements)
** Current wind speed in m/s (hover to see current wind gust speed)